Time,TemperatureF,DewpointF,PressureIn,WindDirection,WindDirectionDegrees,WindSpeedMPH,WindSpeedGustMPH,Humidity,HourlyPrecipIn,Conditions,Clouds,dailyrainin,SoftwareType,DateUTC
2013-01-16 00:03:00,43.0,41.0,30.02,East,91,0.0,2.0,91,0.00,,,0.04,,2013-01-16 05:03:00,
2013-01-16 00:12:00,43.0,41.0,30.02,East,91,0.0,2.0,91,0.00,,,0.04,,2013-01-16 05:12:00,
2013-01-16 00:23:00,43.0,41.0,30.02,East,91,0.0,2.0,91,0.00,,,0.04,,2013-01-16 05:23:00,
2013-01-16 00:32:00,43.0,41.0,30.01,East,91,0.0,0.0,91,0.00,,,0.04,,2013-01-16 05:32:00,
2013-01-16 00:42:00,43.0,41.0,30.01,East,91,0.0,0.0,91,0.00,,,0.04,,2013-01-16 05:42:00,
2013-01-16 00:53:00,43.0,41.0,29.99,East,91,0.0,2.0,91,0.01,,,0.05,,2013-01-16 05:53:00,
2013-01-16 01:03:00,43.0,41.0,29.99,East,91,0.0,2.0,91,0.01,,,0.05,,2013-01-16 06:03:00,
2013-01-16 01:12:00,43.0,41.0,29.99,East,91,0.0,2.0,91,0.01,,,0.05,,2013-01-16 06:12:00,
2013-01-16 01:22:00,43.0,41.0,29.99,East,91,0.0,0.0,91,0.01,,,0.05,,2013-01-16 06:22:00,
2013-01-16 01:33:00,43.0,41.0,29.98,East,91,0.0,0.0,91,0.01,,,0.05,,2013-01-16 06:33:00,
2013-01-16 01:43:00,43.0,41.0,29.98,East,91,0.0,0.0,91,0.01,,,0.05,,2013-01-16 06:43:00,
2013-01-16 01:52:00,43.0,41.0,29.99,NW,307,1.0,3.0,91,0.00,,,0.05,,2013-01-16 06:52:00,
2013-01-16 02:02:00,43.0,41.0,29.98,NW,307,0.0,0.0,91,0.00,,,0.05,,2013-01-16 07:02:00,
2013-01-16 02:12:00,43.0,41.0,29.98,NW,307,0.0,0.0,91,0.00,,,0.05,,2013-01-16 07:12:00,
2013-01-16 02:22:00,43.0,41.0,29.99,NW,307,0.0,2.0,91,0.00,,,0.05,,2013-01-16 07:22:00,
2013-01-16 02:33:00,43.0,41.0,29.99,NW,307,0.0,2.0,91,0.00,,,0.05,,2013-01-16 07:33:00,
2013-01-16 02:42:00,43.0,41.0,29.99,NW,307,0.0,2.0,91,0.00,,,0.05,,2013-01-16 07:42:00,
2013-01-16 02:52:00,43.0,41.0,29.99,NW,307,0.0,2.0,91,0.00,,,0.05,,2013-01-16 07:52:00,
2013-01-16 03:03:00,43.0,41.0,29.99,WNW,294,0.0,1.0,91,0.00,,,0.05,,2013-01-16 08:03:00,
2013-01-16 03:12:00,43.0,41.0,29.99,WNW,294,0.0,1.0,91,0.00,,,0.05,,2013-01-16 08:12:00,
2013-01-16 03:23:00,43.0,41.0,30.00,WNW,288,0.0,3.0,91,0.00,,,0.05,,2013-01-16 08:23:00,
2013-01-16 03:32:00,43.0,41.0,29.99,WNW,288,0.0,1.0,91,0.00,,,0.04,,2013-01-16 08:32:00,
2013-01-16 03:42:00,43.0,41.0,29.99,WNW,288,0.0,1.0,91,0.00,,,0.04,,2013-01-16 08:42:00,
2013-01-16 03:52:00,43.0,41.0,29.98,WNW,288,0.0,0.0,91,0.00,,,0.04,,2013-01-16 08:52:00,
2013-01-16 04:02:00,43.0,41.0,29.99,WNW,288,0.0,2.0,91,0.00,,,0.04,,2013-01-16 09:02:00,
2013-01-16 04:12:00,43.0,41.0,29.99,WNW,288,0.0,2.0,91,0.00,,,0.04,,2013-01-16 09:12:00,
2013-01-16 04:22:00,43.0,41.0,29.99,WNW,288,0.0,2.0,91,0.00,,,0.04,,2013-01-16 09:22:00,
2013-01-16 04:32:00,43.0,41.0,29.97,West,264,0.0,3.0,91,0.00,,,0.03,,2013-01-16 09:32:00,
2013-01-16 04:43:00,43.0,41.0,29.97,West,264,0.0,3.0,91,0.00,,,0.03,,2013-01-16 09:43:00,
2013-01-16 04:52:00,42.0,40.0,29.97,West,260,0.0,2.0,91,0.00,,,0.03,,2013-01-16 09:52:00,
2013-01-16 05:03:00,42.0,40.0,29.97,West,260,0.0,2.0,91,0.00,,,0.03,,2013-01-16 10:03:00,
2013-01-16 05:12:00,42.0,40.0,29.97,West,260,0.0,2.0,91,0.00,,,0.03,,2013-01-16 10:12:00,
2013-01-16 05:22:00,42.0,40.0,29.97,West,267,0.0,3.0,91,0.01,,,0.04,,2013-01-16 10:22:00,
2013-01-16 05:32:00,42.0,40.0,29.97,WNW,283,0.0,1.0,91,0.02,,,0.04,,2013-01-16 10:32:00,
2013-01-16 05:43:00,42.0,40.0,29.97,WNW,283,0.0,1.0,91,0.02,,,0.04,,2013-01-16 10:43:00,
2013-01-16 05:52:00,41.0,39.0,29.97,WNW,299,0.0,1.0,91,0.02,,,0.04,,2013-01-16 10:52:00,
2013-01-16 06:02:00,41.0,38.0,29.96,WNW,299,0.0,1.0,90,0.03,,,0.05,,2013-01-16 11:02:00,
2013-01-16 06:12:00,41.0,38.0,29.96,WNW,299,0.0,1.0,90,0.03,,,0.05,,2013-01-16 11:12:00,
2013-01-16 06:23:00,41.0,39.0,29.96,WNW,299,0.0,1.0,91,0.02,,,0.05,,2013-01-16 11:23:00,
2013-01-16 06:33:00,40.0,37.0,29.95,WNW,299,0.0,1.0,90,0.02,,,0.06,,2013-01-16 11:33:00,
2013-01-16 06:43:00,40.0,37.0,29.95,WNW,299,0.0,1.0,90,0.02,,,0.06,,2013-01-16 11:43:00,
2013-01-16 06:52:00,40.0,38.0,29.96,WNW,299,0.0,1.0,91,0.02,,,0.06,,2013-01-16 11:52:00,
2013-01-16 07:03:00,40.0,38.0,29.96,WNW,299,0.0,0.0,91,0.01,,,0.06,,2013-01-16 12:03:00,
2013-01-16 07:13:00,40.0,38.0,29.96,WNW,299,0.0,0.0,91,0.01,,,0.06,,2013-01-16 12:13:00,
2013-01-16 07:22:00,40.0,38.0,29.96,WNW,299,0.0,0.0,91,0.01,,,0.06,,2013-01-16 12:22:00,
2013-01-16 07:33:00,40.0,38.0,29.97,WNW,299,0.0,0.0,91,0.00,,,0.05,,2013-01-16 12:33:00,
2013-01-16 07:43:00,40.0,38.0,29.97,WNW,299,0.0,0.0,91,0.00,,,0.05,,2013-01-16 12:43:00,
2013-01-16 07:53:00,40.0,38.0,29.97,WNW,299,0.0,0.0,91,0.00,,,0.05,,2013-01-16 12:53:00,
2013-01-16 08:03:00,40.0,38.0,29.97,WNW,299,0.0,1.0,91,0.00,,,0.05,,2013-01-16 13:03:00,
2013-01-16 08:13:00,40.0,38.0,29.97,WNW,299,0.0,1.0,91,0.00,,,0.05,,2013-01-16 13:13:00,
2013-01-16 08:22:00,40.0,38.0,29.98,WNW,299,0.0,1.0,91,0.00,,,0.05,,2013-01-16 13:22:00,
2013-01-16 08:23:00,40.0,38.0,29.97,WNW,299,0.0,0.0,91,0.00,,,0.05,,2013-01-16 13:23:00,
2013-01-16 08:33:00,40.0,38.0,29.97,WNW,299,0.0,0.0,91,0.00,,,0.05,,2013-01-16 13:33:00,
2013-01-16 08:43:00,40.0,38.0,29.97,WNW,299,0.0,0.0,91,0.00,,,0.05,,2013-01-16 13:43:00,
2013-01-16 08:52:00,40.0,38.0,29.98,WNW,299,0.0,1.0,91,0.00,,,0.05,,2013-01-16 13:52:00,
2013-01-16 09:03:00,40.0,38.0,29.98,WNW,299,0.0,1.0,91,0.00,,,0.05,,2013-01-16 14:03:00,
2013-01-16 09:12:00,40.0,38.0,29.98,WNW,299,0.0,1.0,91,0.00,,,0.05,,2013-01-16 14:12:00,
2013-01-16 09:33:00,41.0,39.0,29.98,WNW,299,0.0,1.0,91,0.00,,,0.05,,2013-01-16 14:33:00,
2013-01-16 09:43:00,41.0,39.0,29.98,WNW,299,0.0,1.0,91,0.00,,,0.05,,2013-01-16 14:43:00,
2013-01-16 09:53:00,41.0,39.0,29.98,WNW,299,0.0,1.0,91,0.00,,,0.05,,2013-01-16 14:53:00,
2013-01-16 10:03:00,41.0,39.0,29.98,WNW,299,0.0,1.0,91,0.00,,,0.05,,2013-01-16 15:03:00,
2013-01-16 10:12:00,41.0,39.0,29.98,WNW,299,0.0,1.0,91,0.00,,,0.05,,2013-01-16 15:12:00,
2013-01-16 10:23:00,41.0,39.0,29.98,WNW,299,0.0,1.0,91,0.00,,,0.05,,2013-01-16 15:23:00,
2013-01-16 10:33:00,41.0,39.0,29.98,WNW,299,0.0,0.0,91,0.00,,,0.05,,2013-01-16 15:33:00,
2013-01-16 10:43:00,41.0,39.0,29.98,WNW,299,0.0,0.0,91,0.00,,,0.05,,2013-01-16 15:43:00,
2013-01-16 10:53:00,41.0,39.0,29.99,WNW,299,0.0,0.0,91,0.00,,,0.05,,2013-01-16 15:53:00,
2013-01-16 11:04:00,41.0,39.0,29.99,WNW,299,0.0,2.0,91,0.00,,,0.05,,2013-01-16 16:04:00,
2013-01-16 11:12:00,41.0,39.0,29.99,WNW,299,0.0,2.0,91,0.00,,,0.05,,2013-01-16 16:12:00,
2013-01-16 11:23:00,42.0,40.0,29.99,WNW,290,0.0,2.0,91,0.00,,,0.05,,2013-01-16 16:23:00,
2013-01-16 11:33:00,42.0,40.0,30.00,WNW,287,0.0,3.0,91,0.00,,,0.05,,2013-01-16 16:33:00,
2013-01-16 11:43:00,42.0,40.0,30.00,WNW,287,0.0,3.0,91,0.00,,,0.05,,2013-01-16 16:43:00,
2013-01-16 11:52:00,42.0,40.0,30.00,West,267,0.0,4.0,91,0.01,,,0.06,,2013-01-16 16:52:00,
2013-01-16 12:03:00,42.0,40.0,29.98,West,267,0.0,2.0,91,0.02,,,0.07,,2013-01-16 17:03:00,
2013-01-16 12:12:00,42.0,40.0,29.98,West,267,0.0,2.0,91,0.02,,,0.07,,2013-01-16 17:12:00,
2013-01-16 12:23:00,42.0,40.0,29.98,ENE,57,0.0,3.0,91,0.02,,,0.07,,2013-01-16 17:23:00,
2013-01-16 12:33:00,42.0,40.0,29.98,WNW,298,0.0,2.0,91,0.02,,,0.07,,2013-01-16 17:33:00,
2013-01-16 12:44:00,42.0,40.0,29.98,WNW,298,0.0,2.0,91,0.02,,,0.07,,2013-01-16 17:44:00,
2013-01-16 12:53:00,42.0,40.0,29.96,WNW,298,0.0,1.0,91,0.02,,,0.08,,2013-01-16 17:53:00,
2013-01-16 13:03:00,42.0,40.0,29.95,WNW,294,0.0,1.0,91,0.06,,,0.13,,2013-01-16 18:03:00,
2013-01-16 13:13:00,42.0,40.0,29.95,WNW,294,0.0,1.0,91,0.06,,,0.13,,2013-01-16 18:13:00,
2013-01-16 13:23:00,42.0,40.0,29.94,WNW,294,0.0,1.0,91,0.10,,,0.17,,2013-01-16 18:23:00,
2013-01-16 13:33:00,43.0,41.0,29.94,WNW,294,0.0,2.0,91,0.11,,,0.18,,2013-01-16 18:33:00,
2013-01-16 13:43:00,43.0,41.0,29.94,WNW,294,0.0,2.0,91,0.11,,,0.18,,2013-01-16 18:43:00,
2013-01-16 13:53:00,43.0,41.0,29.94,WNW,294,0.0,2.0,91,0.11,,,0.18,,2013-01-16 18:53:00,
2013-01-16 14:03:00,43.0,41.0,29.94,WNW,294,0.0,2.0,91,0.11,,,0.18,,2013-01-16 19:03:00,
2013-01-16 14:23:00,44.0,42.0,29.93,SW,220,0.0,1.0,91,0.02,,,0.19,,2013-01-16 19:23:00,
2013-01-16 14:33:00,44.0,42.0,29.93,SW,219,0.0,2.0,91,0.01,,,0.19,,2013-01-16 19:33:00,
2013-01-16 14:43:00,44.0,42.0,29.93,SW,219,0.0,2.0,91,0.01,,,0.19,,2013-01-16 19:43:00,
2013-01-16 14:52:00,44.0,42.0,29.91,SSW,196,0.0,1.0,91,0.00,,,0.19,,2013-01-16 19:52:00,
2013-01-16 15:03:00,44.0,42.0,29.91,SSW,196,0.0,1.0,91,0.00,,,0.19,,2013-01-16 20:03:00,
2013-01-16 15:12:00,44.0,42.0,29.91,SSW,196,0.0,1.0,91,0.00,,,0.19,,2013-01-16 20:12:00,
2013-01-16 15:23:00,45.0,43.0,29.91,SSW,196,0.0,2.0,91,0.00,,,0.19,,2013-01-16 20:23:00,
2013-01-16 15:33:00,45.0,43.0,29.91,SSW,196,0.0,1.0,91,0.00,,,0.19,,2013-01-16 20:33:00,
2013-01-16 15:43:00,45.0,43.0,29.91,SSW,196,0.0,1.0,91,0.00,,,0.19,,2013-01-16 20:43:00,
2013-01-16 15:53:00,46.0,44.0,29.92,SSW,196,0.0,1.0,91,0.00,,,0.19,,2013-01-16 20:53:00,
2013-01-16 16:03:00,46.0,44.0,29.92,SSW,196,0.0,1.0,91,0.00,,,0.19,,2013-01-16 21:03:00,
2013-01-16 16:12:00,46.0,44.0,29.92,SSW,196,0.0,1.0,91,0.00,,,0.19,,2013-01-16 21:12:00,
2013-01-16 16:23:00,46.0,44.0,29.93,SSW,205,0.0,2.0,91,0.00,,,0.19,,2013-01-16 21:23:00,
2013-01-16 16:33:00,46.0,44.0,29.93,SSW,205,0.0,2.0,91,0.00,,,0.19,,2013-01-16 21:33:00,
2013-01-16 16:43:00,46.0,44.0,29.93,SSW,205,0.0,2.0,91,0.00,,,0.19,,2013-01-16 21:43:00,
2013-01-16 16:52:00,46.0,44.0,29.92,SW,219,0.0,2.0,91,0.00,,,0.19,,2013-01-16 21:52:00,
2013-01-16 17:03:00,47.0,45.0,29.91,SW,219,0.0,2.0,91,0.00,,,0.19,,2013-01-16 22:03:00,
2013-01-16 17:12:00,47.0,45.0,29.91,SW,219,0.0,2.0,91,0.00,,,0.19,,2013-01-16 22:12:00,
2013-01-16 17:23:00,47.0,45.0,29.91,SW,222,0.0,2.0,91,0.00,,,0.19,,2013-01-16 22:23:00,
2013-01-16 17:33:00,47.0,45.0,29.91,SW,222,0.0,2.0,91,0.00,,,0.19,,2013-01-16 22:33:00,
2013-01-16 17:43:00,47.0,45.0,29.91,SW,222,0.0,2.0,91,0.00,,,0.19,,2013-01-16 22:43:00,
2013-01-16 17:52:00,47.0,45.0,29.92,SW,222,0.0,1.0,91,0.00,,,0.19,,2013-01-16 22:52:00,
2013-01-16 18:03:00,47.0,45.0,29.93,West,262,0.0,3.0,91,0.00,,,0.19,,2013-01-16 23:03:00,
2013-01-16 18:12:00,47.0,45.0,29.93,West,262,0.0,3.0,91,0.00,,,0.19,,2013-01-16 23:12:00,
2013-01-16 18:23:00,47.0,45.0,29.93,West,262,0.0,3.0,91,0.00,,,0.19,,2013-01-16 23:23:00,
2013-01-16 18:33:00,47.0,45.0,29.93,West,262,0.0,0.0,91,0.00,,,0.19,,2013-01-16 23:33:00,
2013-01-16 18:43:00,47.0,45.0,29.93,West,262,0.0,0.0,91,0.00,,,0.19,,2013-01-16 23:43:00,
2013-01-16 18:53:00,47.0,45.0,29.93,West,262,0.0,0.0,91,0.00,,,0.19,,2013-01-16 23:53:00,
2013-01-16 19:02:00,47.0,45.0,29.93,West,262,0.0,0.0,91,0.00,,,0.19,,2013-01-17 00:02:00,
2013-01-16 19:12:00,47.0,45.0,29.93,West,262,0.0,0.0,91,0.00,,,0.19,,2013-01-17 00:12:00,
2013-01-16 19:22:00,47.0,45.0,29.92,West,262,0.0,0.0,91,0.00,,,0.19,,2013-01-17 00:22:00,
2013-01-16 19:32:00,47.0,45.0,29.93,West,262,0.0,0.0,91,0.00,,,0.19,,2013-01-17 00:32:00,
2013-01-16 19:42:00,47.0,45.0,29.93,West,262,0.0,0.0,91,0.00,,,0.19,,2013-01-17 00:42:00,
2013-01-16 19:52:00,47.0,45.0,29.93,West,262,0.0,0.0,91,0.00,,,0.19,,2013-01-17 00:52:00,
2013-01-16 20:02:00,47.0,45.0,29.94,West,262,0.0,0.0,91,0.00,,,0.19,,2013-01-17 01:02:00,
2013-01-16 20:12:00,47.0,45.0,29.94,West,262,0.0,0.0,91,0.00,,,0.19,,2013-01-17 01:12:00,
2013-01-16 20:22:00,47.0,45.0,29.93,West,262,0.0,0.0,91,0.00,,,0.19,,2013-01-17 01:22:00,
2013-01-16 20:33:00,47.0,45.0,29.92,West,262,0.0,0.0,91,0.00,,,0.19,,2013-01-17 01:33:00,
2013-01-16 20:43:00,47.0,45.0,29.92,West,262,0.0,0.0,91,0.00,,,0.19,,2013-01-17 01:43:00,
2013-01-16 20:52:00,47.0,45.0,29.93,West,262,0.0,0.0,91,0.00,,,0.19,,2013-01-17 01:52:00,
2013-01-16 21:02:00,47.0,45.0,29.93,West,262,0.0,0.0,91,0.00,,,0.19,,2013-01-17 02:02:00,
2013-01-16 21:12:00,47.0,45.0,29.93,West,262,0.0,0.0,91,0.00,,,0.19,,2013-01-17 02:12:00,
2013-01-16 21:22:00,48.0,45.0,29.93,West,262,0.0,1.0,91,0.00,,,0.19,,2013-01-17 02:22:00,
2013-01-16 21:32:00,48.0,45.0,29.93,West,262,0.0,0.0,91,0.00,,,0.19,,2013-01-17 02:32:00,
2013-01-16 21:43:00,48.0,45.0,29.93,West,262,0.0,0.0,91,0.00,,,0.19,,2013-01-17 02:43:00,
2013-01-16 21:52:00,48.0,45.0,29.93,West,262,0.0,0.0,91,0.00,,,0.19,,2013-01-17 02:52:00,
2013-01-16 22:03:00,48.0,45.0,29.92,West,262,0.0,0.0,91,0.00,,,0.19,,2013-01-17 03:03:00,
2013-01-16 22:12:00,48.0,45.0,29.92,West,262,0.0,0.0,91,0.00,,,0.19,,2013-01-17 03:12:00,
2013-01-16 22:22:00,48.0,45.0,29.91,West,262,0.0,0.0,91,0.00,,,0.19,,2013-01-17 03:22:00,
2013-01-16 22:33:00,48.0,45.0,29.91,West,262,0.0,0.0,91,0.00,,,0.19,,2013-01-17 03:33:00,
2013-01-16 22:43:00,48.0,45.0,29.91,West,262,0.0,0.0,91,0.00,,,0.19,,2013-01-17 03:43:00,
2013-01-16 22:52:00,48.0,45.0,29.91,West,262,0.0,0.0,91,0.00,,,0.19,,2013-01-17 03:52:00,
2013-01-16 23:02:00,48.0,45.0,29.90,West,262,0.0,0.0,91,0.00,,,0.19,,2013-01-17 04:02:00,
2013-01-16 23:12:00,48.0,45.0,29.91,West,262,0.0,0.0,91,0.00,,,0.19,,2013-01-17 04:12:00,
2013-01-16 23:22:00,48.0,45.0,29.91,West,262,0.0,0.0,91,0.00,,,0.19,,2013-01-17 04:22:00,
2013-01-16 23:33:00,48.0,45.0,29.90,West,262,0.0,0.0,91,0.00,,,0.19,,2013-01-17 04:33:00,
2013-01-16 23:42:00,48.0,45.0,29.90,West,262,0.0,0.0,91,0.00,,,0.19,,2013-01-17 04:42:00,
2013-01-16 23:52:00,48.0,45.0,29.90,West,262,0.0,0.0,91,0.00,,,0.19,,2013-01-17 04:52:00,